Weather in Annapolis

United States     38°58′41″N   76°29′34″W
temp.,
°C
wind,
m/s
gust,
m/s
humid.,
%
clouds,
%
prec.,
mm/h
press.,
hPa
HPBL,
m
12 may, wed
wed1223:00+13nw61147100 0.0 1021646
02:00+10nnw61043100 0.0 1024915
05:00+8nw485156 0.0 1024474
08:00+9nw5854100 0.0 1026770
11:00+12n4650100 0.0 10261251
14:00+15nne464610 0.0 10241447
17:00+16ne254688 0.0 10231396
20:00+13wnw11553 0.0 102311
13 may, thu
thu1323:00+13nw476293 0.0 1024223
02:00+11n510645 0.0 1024388
05:00+10n48652 0.0 1025233
08:00+11n36540 0.0 1027343
11:00+16n35391 0.0 10261425
14:00+18ne463837 0.0 10251774
17:00+17nne454296 0.0 10241593
20:00+14nnw22544 0.0 102422
14 may, fri
fri1423:00+12wnw33585 0.0 102539
02:00+11nnw23675 0.0 102560
05:00+10n23745 0.0 102561
08:00+13nnw34605 0.0 1026235
11:00+17ne224435 0.0 10261386
14:00+19ese224062 0.0 10251592
17:00+18w124584 0.0 1024873
20:00+15wsw12607 0.0 102412
15 may, sat
sat1523:00+12wsw22634 0.0 102525
02:00+12wnw22685 0.0 102524
05:00+10w22734 0.0 102541
08:00+14nnw12610 0.0 1026150
11:00+19ene11465 0.0 1026832
14:00+19ese424270 0.0 10251541
17:00+19sse3339100 0.0 1024698
20:00+16ssw23557 0.0 102431
16 may, sun
sun1623:00+13ssw22650 0.0 102527
02:00+12wsw22694 0.0 102544
05:00+11wnw11765 0.0 102628
08:00+14wsw12674 0.0 1027155
11:00+19sse235426 0.0 1027809
14:00+17sse5662100 0.2 1025363
17:00+18s4660100 0.4 1024261
20:00+16sse3468100 0.4 102568